User: anonymous   Login
Location: Cantaing
(50.1487°N, 3.1675°E)
Time: 14:38:04
(UTC+00:00)
Language:

Cosmos 2074 Rocket - Orbit

View from above orbital plane
View from above orbital plane
View from above satellite
View from above satellite

Ground track
Ground track

The orbit is defined by the following mean orbital elements,

1 20578U          26074.26365823 +.00000000 +00000-0 +34625-4 0 00003
2 20578  82.9457 149.1008 0013869  52.8932   5.9925 13.76637119    02
Epoch (UTC): 15 March 2026 06:19:40
Eccentricity: 0.0013869
inclination: 82.9457°
perigee height: 966 km
apogee height: 986 km
right ascension of ascending node: 149.1008°
argument of perigee: 52.8932°
revolutions per day: 13.76637119
mean anomaly at epoch: 5.9925°

The dashed part of the orbit path shows where the satellite is in the earth's shadow,  

DLR